Regional Weather Roundup
Issued by NWS Memphis, TN

Home | Current Version | Previous Version | Text Only | Print | Product List | Glossary On
Versions: 1 2 3 4 5 6 7 8 9 10 11 12 13 14 15 16 17 18 19 20 21 22 23 24 25 26 27 28 29 30 31 32 33 34 35 36 37 38 39 40 41 42 43 44 45 46 47 48 49 50
000
ASUS44 KMEG 020910
RWRMEG
MEMPHIS CWA HOURLY WEATHER ROUNDUP
NATIONAL WEATHER SERVICE MEMPHIS TN
400 AM CDT TUE SEP 02 2014

...WEST TENNESSEE...

CITY           SKY/WX    TMP DP  RH WIND       PRES   REMARKS
MEMPHIS INTL   PTCLDY    78  72  81 S8        29.99R
NWS MEMPHIS      N/A     77 N/A N/A MISG        N/A
JACKSON        PTCLDY    75  70  84 S5        30.00S
LEXINGTON      CLEAR     72  70  94 CALM      30.01S
SAVANNAH       CLEAR     75  72  88 S6        30.02F
DYERSBURG      MOCLDY    73  63  68 CALM      30.00R
UNION CITY     CLEAR     73  72  94 S5        29.97S
PARIS          CLEAR     72  68  88 S8        30.01R
HUNTINGDON     PTCLDY    73  69  87 S3        30.01


...EASTERN ARKANSAS...

CITY           SKY/WX    TMP DP  RH WIND       PRES   REMARKS
JONESBORO      CLOUDY    77  72  84 SW12      29.97R
WEST MEMPHIS   MOCLDY    74  74 100 S6        29.97R
BATESVILLE     CLOUDY    77  72  83 S7        29.95F
NEWPORT        CLOUDY    75  74  97 S5        29.98R
WALNUT RIDGE   CLOUDY    75  57  53 S9        29.95S
BLYTHEVILLE    MOCLDY    75  73  93 SW6       29.99R
SEARCY         CLOUDY    75  74  97 W5        29.98R
STUTTGART      MOCLDY    75  72  88 S10       29.97R
PINE BLUFF     PTCLDY    75  73  93 S7        29.95F
MONTICELLO     CLEAR     75  73  93 S7        29.97S


...NORTH MISSISSIPPI...

CITY           SKY/WX    TMP DP  RH WIND       PRES   REMARKS
TUPELO         PTCLDY    74  70  87 SW6       30.02F
OLIVE BRANCH   CLEAR     73  73 100 S6        30.00R
CLARKSDALE     PTCLDY    75  75 100 CALM      29.98F
CORINTH        PTCLDY    75  70  83 S5        30.01S
GRENADA        PTCLDY    73  72  94 S5        30.00F
GREENWOOD      PTCLDY    75  72  90 S8        30.00F
COLUMBUS       PTCLDY    73  72  99 SE3       30.04F
STARKVILLE     FAIR      70  68  94 CALM      30.04F
GOLDEN TRIANGL PTCLDY    73  70  88 CALM      30.05F


...SOUTHEAST MISSOURI...

CITY           SKY/WX    TMP DP  RH WIND       PRES   REMARKS
WEST PLAINS    CLOUDY    75  71  87 SW9       29.97S
POPLAR BLUFF   CLOUDY    76  71  85 S7        29.93S
CAPE GIRARDEAU CLOUDY    77  72  84 S7        29.93S


...NORTHWEST ALABAMA...

CITY           SKY/WX    TMP DP  RH WIND       PRES   REMARKS
MUSCLE SHOALS  PTCLDY    75  69  81 SW5       30.06F


...MIDDLE TENNESSEE...

CITY           SKY/WX    TMP DP  RH WIND       PRES   REMARKS
NASHVILLE      PTCLDY    71  68  90 S3        30.03S
CLARKSVILLE    MOCLDY    76  69  79 SW7       29.99S
DICKSON        MOCLDY    73  68  83 S9        30.02F
COLUMBIA         N/A     72  72 100 CALM      30.03S
LEWISBURG      PTCLDY    71  67  87 CALM      30.04F


...WESTERN KENTUCKY...

CITY           SKY/WX    TMP DP  RH WIND       PRES   REMARKS
PADUCAH        CLOUDY    79  72  79 SW8       29.95R
FORT CAMPBELL  MOCLDY    75  72  88 S6        30.00R


...CENTRAL ARKANSAS...

CITY           SKY/WX    TMP DP  RH WIND       PRES   REMARKS
LITTLE ROCK    CLOUDY    77  73  87 S3        29.96R


SKY/WX REPORTED AS FAIR MEANS FEW OR NO CLOUDS BELOW
12 THOUSAND FEET.



USA.gov is the U.S. government's official web portal to all federal, state and local government web resources and services.